This demonstration page uses our WeatherBlox Daily Observations layout. Learn more.

Left ArrowRight Arrow

39.92423, -83.80882

Hourly Observations for January 11, 2017

Temp ( °F °C ) Dew Point ( °F °C ) Humidity (%) Winds ( mph kmh ) Pressure ( in mb ) Visibility ( mi km ) Precip ( " mm )
12:56 am 00:56 Clear 37 2.8 32 0 82 82 WSW 17 28 30.08 1019 10 16.0934 0 0
1:56 am 01:56 Clear 35 1.7 32 0 89 89 W 13 20 30.11 1020 10 16.0934 0 0
2:56 am 02:56 Clear 35 1.7 31 -0.6 85 85 WSW 10 17 30.14 1021 10 16.0934 0 0
3:56 am 03:56 Clear 33 0.6 30 -1.1 89 89 SW 9 15 30.15 1021 10 16.0934 0 0
4:56 am 04:56 Clear 32 0 30 -1.1 92 92 SW 9 15 30.17 1022 10 16.0934 0 0
5:56 am 05:56 Clear 32 0 31 -0.6 96 96 S 5 7 30.17 1022 10 16.0934 0 0
6:56 am 06:56 Clear 32 0 31 -0.6 96 96 S 6 9 30.16 1022 10 16.0934 0 0
7:56 am 07:56 Sunny 34 1.1 32 0 92 92 S 9 15 30.14 1021 10 16.0934 0 0
8:56 am 08:56 Sunny 35 1.7 31 -0.6 85 85 SSE 10 17 30.14 1021 10 16.0934 0 0
9:56 am 09:56 Sunny 38 3.3 32 0 79 79 SSE 9 15 30.12 1020 10 16.0934 0 0
10:24 am 10:24 Partly Cloudy 41 5 37 3 87 87 SSE 10 17 30.12 1020 10 16.0934 0 0
10:32 am 10:32 Mostly Cloudy 43 6 39 4 87 87 SSE 14 22 30.12 1020 10 16.0934 0 0
10:56 am 10:56 Cloudy 44 6.7 41 5 89 89 SSE 12 19 30.11 1020 10 16.0934 0 0
11:56 am 11:56 Partly Cloudy 47 8.3 44 6.7 90 90 SSE 13 20 30.07 1018 10 16.0934 0 0
12:56 pm 12:56 Mostly Sunny 50 10 47 8.3 89 89 S 17 28 29.99 1016 10 16.0934 0 0
1:24 pm 13:24 Mostly Cloudy 52 11 48 9 88 88 S 10 17 29.97 1015 10 16.0934 0 0
1:56 pm 13:56 Cloudy 52 11.1 49 9.4 89 89 S 15 24 29.97 1015 10 16.0934 0 0
2:29 pm 14:29 Cloudy 52 11 48 9 88 88 S 15 24 29.91 1013 10 16.0934 0 0
2:54 pm 14:54 Cloudy with Light Rain 52 11 48 9 88 88 S 12 19 29.91 1013 10 16.0934 0 0.0254
2:56 pm 14:56 Cloudy with Light Rain 51 10.6 49 9.4 92 92 S 10 17 29.94 1014 10 16.0934 0 0.0254
3:56 pm 15:56 Cloudy with Rain 51 10.6 50 10 96 96 S 9 15 29.94 1014 8 12.87472 0.16 4.064
4:30 pm 16:30 Cloudy with Light Rain 52 11 50 10 94 94 SSE 15 24 29.91 1013 10 16.0934 0.04 1.016
4:56 pm 16:56 Cloudy with Light Rain 51 10.6 50 10 96 96 SSE 13 20 29.92 1013 10 16.0934 0.05 1.27
5:18 pm 17:18 Cloudy with Light Rain 52 11 50 10 94 94 S 13 20 29.88 1012 10 16.0934 0 0.0254
5:48 pm 17:48 Cloudy 52 11 50 10 94 94 S 8 13 29.88 1012 10 16.0934 0 0.0254
5:56 pm 17:56 Cloudy 52 11.1 50 10 93 93 S 9 15 29.9 1013 10 16.0934 0 0.0254
6:07 pm 18:07 Cloudy 52 11 50 10 94 94 S 9 15 29.88 1012 10 16.0934 0 0
6:18 pm 18:18 Cloudy 52 11 52 11 100 100 S 12 19 29.88 1012 10 16.0934 0 0
6:56 pm 18:56 Cloudy with Light Rain 53 11.7 52 11.1 96 96 S 12 19 29.89 1012 10 16.0934 0 0.0254
7:36 pm 19:36 Cloudy 55 13 54 12 94 94 SSW 13 20 29.88 1012 10 16.0934 0.01 0.254
7:56 pm 19:56 Cloudy 57 13.9 55 12.8 93 93 SSW 13 20 29.87 1012 10 16.0934 0.01 0.254
8:06 pm 20:06 Cloudy 57 14 55 13 94 94 SSW 16 26 29.85 1011 10 16.0934 0 0
8:56 pm 20:56 Cloudy 57 13.9 55 12.8 93 93 S 18 30 29.86 1011 10 16.0934 0 0
9:30 pm 21:30 Cloudy 57 14 54 12 88 88 S 17 28 29.83 1010 10 16.0934 0 0
9:56 pm 21:56 Cloudy 58 14.4 54 12.2 87 87 SSW 16 26 29.85 1011 10 16.0934 0 0
10:54 pm 22:54 Cloudy 57 14 54 12 88 88 SSW 22 35 29.8 1009 10 16.0934 0 0
10:56 pm 22:56 Cloudy 58 14.4 54 12.2 87 87 SSW 24 39 29.81 1010 10 16.0934 0 0
11:04 pm 23:04 Cloudy 57 14 54 12 88 88 SSW 21 33 29.8 1009 10 16.0934 0 0
11:56 pm 23:56 Mostly Cloudy 58 14.4 53 11.7 84 84 SSW 18 30 29.82 1010 10 16.0934 0 0

Powered by AerisWeather